| time (UTC) | temp F | wind direction | speed knots | gust knots | rain 1hr in | rain 24hr in | rain mn in | humidity % | barometer mb |
| 20260506143354 | 69 | 51 | 1.7 | 6.1 | 0.00 | 0.00 | 0.00 | 71 | 1009.0 |
| 20260506142620 | 69 | 63 | 1.7 | 11.3 | 0.00 | 0.00 | 0.00 | 71 | 1009.0 |
| 20260506142114 | 68 | 278 | 1.7 | 11.3 | 0.00 | 0.00 | 0.00 | 72 | 1008.9 |
| 20260506141609 | 68 | 232 | 2.6 | 11.3 | 0.00 | 0.00 | 0.00 | 71 | 1009.0 |
| 20260506141058 | 68 | 190 | 2.6 | 11.3 | 0.00 | 0.00 | 0.00 | 71 | 1009.0 |
| 20260506140557 | 68 | 204 | 1.7 | 5.2 | 0.00 | 0.00 | 0.00 | 71 | 1009.0 |
| 20260506140107 | 68 | 191 | 1.7 | 5.2 | 0.00 | 0.00 | 0.00 | 71 | 1009.0 |
| 20260506135554 | 68 | 183 | 1.7 | 5.2 | 0.00 | 0.00 | 0.00 | 72 | 1009.1 |
| 20260506135316 | 68 | 198 | 1.7 | 5.2 | 0.00 | 0.00 | 0.00 | 72 | 1009.2 |
| 20260506134554 | 68 | 59 | 1.7 | 10.4 | 0.00 | 0.00 | 0.00 | 73 | 1009.2 |
| 20260506134056 | 67 | 211 | 2.6 | 10.4 | 0.00 | 0.00 | 0.00 | 73 | 1009.1 |
| 20260506133551 | 67 | 75 | 2.6 | 13.0 | 0.00 | 0.00 | 0.00 | 73 | 1009.2 |
| 20260506133051 | 67 | 229 | 2.6 | 13.0 | 0.00 | 0.00 | 0.00 | 73 | 1009.5 |
| 20260506132547 | 67 | 189 | 1.7 | 8.7 | 0.00 | 0.00 | 0.00 | 74 | 1009.3 |
| 20260506132050 | 67 | 111 | 1.7 | 5.2 | 0.00 | 0.00 | 0.00 | 74 | 1009.1 |
| 20260506131550 | 66 | 86 | 0.9 | 4.3 | 0.00 | 0.00 | 0.00 | 75 | 1009.2 |
| 20260506131048 | 66 | 243 | 1.7 | 5.2 | 0.00 | 0.00 | 0.00 | 75 | 1009.3 |
| 20260506130548 | 66 | 38 | 1.7 | 5.2 | 0.00 | 0.00 | 0.00 | 75 | 1009.3 |
| 20260506130049 | 66 | 209 | 1.7 | 6.1 | 0.00 | 0.00 | 0.00 | 75 | 1009.3 |
| 20260506125549 | 66 | 84 | 1.7 | 6.1 | 0.00 | 0.00 | 0.00 | 75 | 1009.2 |
| 20260506125045 | 66 | 89 | 1.7 | 6.1 | 0.00 | 0.00 | 0.00 | 75 | 1009.1 |
| 20260506124543 | 66 | 47 | 1.7 | 9.6 | 0.00 | 0.00 | 0.00 | 75 | 1009.0 |
| 20260506124047 | 66 | 90 | 1.7 | 9.6 | 0.00 | 0.00 | 0.00 | 76 | 1008.9 |
| 20260506123544 | 66 | 121 | 1.7 | 9.6 | 0.00 | 0.00 | 0.00 | 76 | 1009.0 |
| 20260506123039 | 66 | 197 | 0.9 | 9.6 | 0.00 | 0.00 | 0.00 | 77 | 1008.9 |
| 20260506122540 | 65 | 250 | 1.7 | 6.1 | 0.00 | 0.00 | 0.00 | 77 | 1009.0 |
| 20260506122040 | 65 | 58 | 1.7 | 6.1 | 0.00 | 0.00 | 0.00 | 77 | 1009.1 |
| 20260506121539 | 65 | 36 | 1.7 | 5.2 | 0.00 | 0.00 | 0.00 | 77 | 1009.2 |
| 20260506121040 | 65 | 219 | 1.7 | 6.1 | 0.00 | 0.00 | 0.00 | 77 | 1009.2 |
| 20260506120540 | 65 | 66 | 1.7 | 7.0 | 0.00 | 0.00 | 0.00 | 77 | 1009.3 |
| 20260506120053 | 65 | 94 | 1.7 | 7.0 | 0.00 | 0.00 | 0.00 | 77 | 1009.3 |
| 20260506115544 | 65 | 54 | 0.9 | 7.8 | 0.00 | 0.00 | 0.00 | 77 | 1009.3 |
| 20260506115523 | 65 | 146 | 0.9 | 7.8 | 0.00 | 0.00 | 0.00 | 77 | 1009.4 |
| 20260506114541 | 65 | 217 | 0.9 | 7.8 | 0.00 | 0.00 | 0.00 | 78 | 1009.3 |
| 20260506114040 | 65 | 80 | 1.7 | 7.8 | 0.00 | 0.00 | 0.00 | 78 | 1009.4 |
| 20260506113534 | 65 | 229 | 1.7 | 5.2 | 0.00 | 0.00 | 0.00 | 78 | 1009.3 |
| 20260506113028 | 65 | 96 | 1.7 | 5.2 | 0.00 | 0.00 | 0.00 | 78 | 1009.3 |
| 20260506112524 | 65 | 30 | 0.9 | 5.2 | 0.00 | 0.00 | 0.00 | 78 | 1009.4 |
| 20260506112025 | 65 | 96 | 0.9 | 3.5 | 0.00 | 0.00 | 0.00 | 78 | 1009.3 |
| 20260506111524 | 65 | 196 | 0.9 | 3.5 | 0.00 | 0.00 | 0.00 | 79 | 1009.3 |
| 20260506111024 | 64 | 67 | 0.9 | 6.1 | 0.00 | 0.00 | 0.00 | 79 | 1009.3 |
| 20260506110537 | 64 | 243 | 0.9 | 6.1 | 0.00 | 0.00 | 0.00 | 79 | 1009.3 |
| 20260506110244 | 64 | 205 | 0.9 | 6.1 | 0.00 | 0.00 | 0.00 | 80 | 1009.3 |
| 20260506105520 | 64 | 152 | 0.9 | 6.1 | 0.00 | 0.00 | 0.00 | 80 | 1009.2 |
| 20260506105020 | 64 | 89 | 0.9 | 4.3 | 0.00 | 0.00 | 0.00 | 80 | 1009.2 |
| 20260506104515 | 64 | 105 | 0.9 | 4.3 | 0.00 | 0.00 | 0.00 | 80 | 1009.1 |
| 20260506104242 | 64 | 217 | 0.9 | 4.3 | 0.00 | 0.00 | 0.00 | 80 | 1009.2 |
| 20260506103514 | 63 | 152 | 0.9 | 5.2 | 0.00 | 0.00 | 0.00 | 81 | 1009.3 |
| 20260506103013 | 63 | 301 | 1.7 | 5.2 | 0.00 | 0.00 | 0.00 | 81 | 1009.2 |
| 20260506102515 | 63 | 108 | 0.9 | 5.2 | 0.00 | 0.00 | 0.00 | 81 | 1009.2 |
| 20260506102013 | 63 | 21 | 0.9 | 5.2 | 0.00 | 0.00 | 0.00 | 81 | 1009.2 |
| 20260506101512 | 63 | 18 | 0.9 | 5.2 | 0.00 | 0.00 | 0.00 | 81 | 1009.1 |
| 20260506101237 | 63 | 162 | 0.9 | 5.2 | 0.00 | 0.00 | 0.00 | 81 | 1009.1 |
| 20260506100504 | 63 | 246 | 0.9 | 5.2 | 0.00 | 0.00 | 0.00 | 81 | 1009.0 |
| 20260506095957 | 63 | 96 | 0.9 | 5.2 | 0.00 | 0.00 | 0.00 | 82 | 1009.1 |
| 20260506095716 | 63 | 198 | 0.9 | 4.3 | 0.00 | 0.00 | 0.00 | 82 | 1009.0 |
| 20260506094940 | 63 | 51 | 0.0 | 3.5 | 0.00 | 0.00 | 0.00 | 82 | 1008.9 |
| 20260506094441 | 63 | 246 | 0.9 | 3.5 | 0.00 | 0.00 | 0.00 | 82 | 1009.0 |
| 20260506093938 | 62 | 120 | 0.9 | 3.5 | 0.00 | 0.00 | 0.00 | 82 | 1008.9 |
| 20260506093440 | 62 | 67 | 0.9 | 3.5 | 0.00 | 0.00 | 0.00 | 82 | 1008.9 |
| 20260506093157 | 62 | 67 | 0.9 | 3.5 | 0.00 | 0.00 | 0.00 | 83 | 1009.1 |
| 20260506092436 | 62 | 46 | 0.0 | 2.6 | 0.00 | 0.00 | 0.00 | 83 | 1009.0 |
| 20260506092158 | 62 | 46 | 0.0 | 2.6 | 0.00 | 0.00 | 0.00 | 82 | 1009.1 |
| 20260506091437 | 62 | 46 | 0.0 | 1.7 | 0.00 | 0.00 | 0.00 | 82 | 1009.0 |
| 20260506090937 | 62 | 46 | 0.0 | 1.7 | 0.00 | 0.00 | 0.00 | 82 | 1009.2 |
| 20260506090432 | 62 | 46 | 0.0 | 1.7 | 0.00 | 0.00 | 0.00 | 82 | 1009.1 |
| 20260506085947 | 62 | 41 | 0.0 | 2.6 | 0.00 | 0.00 | 0.00 | 82 | 1009.2 |
| 20260506085936 | 62 | 46 | 0.9 | 2.6 | 0.00 | 0.00 | 0.00 | 82 | 1009.2 |
| 20260506084929 | 62 | 41 | 0.0 | 1.7 | 0.00 | 0.00 | 0.00 | 81 | 1009.2 |
| 20260506084436 | 62 | 40 | 0.0 | 1.7 | 0.00 | 0.00 | 0.00 | 82 | 1009.3 |
| 20260506083926 | 62 | 40 | 0.0 | 1.7 | 0.00 | 0.00 | 0.00 | 81 | 1009.3 |
| 20260506083426 | 62 | 34 | 0.9 | 3.5 | 0.00 | 0.00 | 0.00 | 81 | 1009.3 |
| 20260506082925 | 62 | 34 | 0.0 | 3.5 | 0.00 | 0.00 | 0.00 | 81 | 1009.3 |
| 20260506082428 | 63 | 200 | 0.0 | 1.7 | 0.00 | 0.00 | 0.00 | 80 | 1009.2 |
| 20260506081925 | 63 | 199 | 0.0 | 0.9 | 0.00 | 0.00 | 0.00 | 79 | 1009.4 |
| 20260506081424 | 63 | 199 | 0.0 | 1.7 | 0.00 | 0.00 | 0.00 | 79 | 1009.3 |
| 20260506080923 | 63 | 200 | 0.0 | 1.7 | 0.00 | 0.00 | 0.00 | 78 | 1009.3 |
| 20260506080421 | 63 | 199 | 0.0 | 2.6 | 0.00 | 0.00 | 0.00 | 78 | 1009.3 |
| 20260506073413 | 64 | 249 | 0.9 | 5.2 | 0.00 | 0.00 | 0.00 | 77 | 1009.4 |
| 20260506072915 | 64 | 169 | 0.0 | 2.6 | 0.00 | 0.00 | 0.00 | 76 | 1009.4 |
| 20260506072414 | 64 | 211 | 0.0 | 2.6 | 0.00 | 0.00 | 0.00 | 75 | 1009.4 |
| 20260506072133 | 64 | 211 | 0.0 | 3.5 | 0.00 | 0.00 | 0.00 | 75 | 1009.3 |
| 20260506071416 | 65 | 148 | 0.0 | 3.5 | 0.00 | 0.00 | 0.00 | 74 | 1009.3 |
| 20260506071135 | 65 | 151 | 0.0 | 3.5 | 0.00 | 0.00 | 0.00 | 74 | 1009.3 |
| 20260506070414 | 65 | 151 | 0.0 | 3.5 | 0.00 | 0.00 | 0.00 | 74 | 1009.4 |
| 20260506062414 | 66 | 227 | 0.9 | 3.5 | 0.00 | 0.00 | 0.00 | 71 | 1009.5 |
| 20260506061915 | 66 | 55 | 0.0 | 3.5 | 0.00 | 0.00 | 0.00 | 71 | 1009.5 |
| 20260506061643 | 66 | 55 | 0.9 | 3.5 | 0.00 | 0.00 | 0.00 | 70 | 1009.5 |
| 20260506060914 | 66 | 225 | 0.9 | 2.6 | 0.00 | 0.00 | 0.00 | 70 | 1009.5 |
| 20260506060414 | 66 | 96 | 0.9 | 5.2 | 0.00 | 0.00 | 0.00 | 70 | 1009.5 |
| 20260506051401 | 67 | 53 | 1.7 | 5.2 | 0.00 | 0.00 | 0.00 | 67 | 1010.0 |
| 20260506050904 | 67 | 207 | 0.9 | 5.2 | 0.00 | 0.00 | 0.00 | 67 | 1010.0 |
| 20260506050604 | 67 | 109 | 0.9 | 5.2 | 0.00 | 0.00 | 0.00 | 67 | 1010.1 |
| 20260506050458 | 67 | 92 | 0.9 | 5.2 | 0.00 | 0.00 | 0.00 | 67 | 1010.0 |
| 20260506044858 | 67 | 208 | 0.9 | 4.3 | 0.00 | 0.00 | 0.00 | 66 | 1010.1 |
| 20260506044354 | 67 | 152 | 1.7 | 7.8 | 0.00 | 0.00 | 0.00 | 66 | 1010.1 |
| 20260506043855 | 67 | 213 | 1.7 | 7.8 | 0.00 | 0.00 | 0.00 | 66 | 1010.1 |
| 20260506043355 | 67 | 117 | 1.7 | 6.1 | 0.00 | 0.00 | 0.00 | 66 | 1009.9 |
| 20260506042855 | 67 | 83 | 0.9 | 6.1 | 0.00 | 0.00 | 0.00 | 65 | 1010.0 |
| 20260506042356 | 67 | 263 | 0.9 | 4.3 | 0.00 | 0.00 | 0.00 | 65 | 1010.1 |
| 20260506041853 | 67 | 77 | 0.9 | 4.3 | 0.00 | 0.00 | 0.00 | 65 | 1010.0 |
| 20260506041351 | 67 | 221 | 0.9 | 3.5 | 0.00 | 0.00 | 0.00 | 65 | 1010.0 |
| 20260506040901 | 67 | 121 | 0.9 | 2.6 | 0.00 | 0.00 | 0.00 | 65 | 1010.0 |
| 20260506040346 | 68 | 71 | 0.9 | 5.2 | 0.00 | 0.00 | 0.00 | 65 | 1010.0 |
| 20260506035846 | 68 | 196 | 0.9 | 5.2 | 0.00 | 0.00 | 0.00 | 65 | 1009.9 |
| 20260506035347 | 68 | 5 | 0.9 | 4.3 | 0.00 | 0.00 | 0.00 | 65 | 1009.9 |
| 20260506035108 | 68 | 68 | 0.9 | 4.3 | 0.00 | 0.00 | 0.00 | 65 | 1009.9 |
| 20260506034346 | 68 | 242 | 0.9 | 7.8 | 0.00 | 0.00 | 0.00 | 64 | 1009.8 |
| 20260506033846 | 68 | 92 | 0.9 | 7.8 | 0.00 | 0.00 | 0.00 | 64 | 1010.0 |
| 20260506033345 | 68 | 113 | 0.9 | 7.8 | 0.00 | 0.00 | 0.00 | 63 | 1010.0 |
| 20260506032845 | 69 | 204 | 0.9 | 7.8 | 0.00 | 0.00 | 0.00 | 63 | 1009.9 |
| 20260506032344 | 69 | 204 | 0.9 | 3.5 | 0.00 | 0.00 | 0.00 | 62 | 1009.9 |
| 20260506031845 | 69 | 73 | 0.9 | 3.5 | 0.00 | 0.00 | 0.00 | 62 | 1009.9 |
| 20260506031608 | 69 | 56 | 0.9 | 3.5 | 0.00 | 0.00 | 0.00 | 61 | 1010.0 |
| 20260506031107 | 70 | 39 | 0.9 | 5.2 | 0.00 | 0.00 | 0.00 | 60 | 1009.9 |
| 20260506030346 | 70 | 40 | 0.9 | 5.2 | 0.00 | 0.00 | 0.00 | 60 | 1009.9 |
| 20260506025848 | 70 | 154 | 0.9 | 6.1 | 0.00 | 0.00 | 0.00 | 60 | 1009.9 |
| 20260506025337 | 70 | 153 | 1.7 | 6.1 | 0.00 | 0.00 | 0.00 | 59 | 1009.8 |
| 20260506025050 | 71 | 103 | 0.9 | 6.1 | 0.00 | 0.00 | 0.00 | 58 | 1009.7 |
| 20260506024324 | 71 | 220 | 1.7 | 3.5 | 0.00 | 0.00 | 0.00 | 57 | 1009.8 |
| 20260506023815 | 71 | 130 | 1.7 | 13.0 | 0.00 | 0.00 | 0.00 | 57 | 1009.8 |
| 20260506023309 | 71 | 215 | 0.9 | 13.0 | 0.00 | 0.00 | 0.00 | 56 | 1009.7 |
| 20260506022801 | 72 | 52 | 0.9 | 9.6 | 0.00 | 0.00 | 0.00 | 55 | 1009.7 |
| 20260506022251 | 72 | 132 | 1.7 | 9.6 | 0.00 | 0.00 | 0.00 | 55 | 1009.7 |
| 20260506021745 | 72 | 128 | 2.6 | 10.4 | 0.00 | 0.00 | 0.00 | 54 | 1009.7 |
| 20260506021239 | 72 | 220 | 2.6 | 11.3 | 0.00 | 0.00 | 0.00 | 53 | 1009.7 |
| 20260506020954 | 73 | 24 | 1.7 | 7.8 | 0.00 | 0.00 | 0.00 | 52 | 1009.7 |
| 20260506020449 | 73 | 211 | 1.7 | 7.8 | 0.00 | 0.00 | 0.00 | 52 | 1009.6 |
| 20260506015716 | 73 | 196 | 1.7 | 7.8 | 0.00 | 0.00 | 0.00 | 51 | 1009.7 |
| 20260506015206 | 73 | 292 | 1.7 | 7.8 | 0.00 | 0.00 | 0.00 | 50 | 1009.5 |
| 20260506014700 | 73 | 172 | 1.7 | 7.0 | 0.00 | 0.00 | 0.00 | 49 | 1009.6 |
| 20260506014155 | 73 | 239 | 1.7 | 7.0 | 0.00 | 0.00 | 0.00 | 49 | 1009.4 |
| 20260506013645 | 74 | 80 | 1.7 | 7.0 | 0.00 | 0.00 | 0.00 | 49 | 1009.4 |
| 20260506013139 | 74 | 234 | 1.7 | 6.1 | 0.00 | 0.00 | 0.00 | 48 | 1009.2 |
| 20260506012633 | 74 | 5 | 0.9 | 6.1 | 0.00 | 0.00 | 0.00 | 48 | 1009.2 |
| 20260506012123 | 74 | 169 | 0.9 | 6.1 | 0.00 | 0.00 | 0.00 | 48 | 1009.1 |
| 20260506011617 | 74 | 95 | 1.7 | 6.1 | 0.00 | 0.00 | 0.00 | 48 | 1009.0 |
| 20260506011113 | 74 | 17 | 1.7 | 6.1 | 0.00 | 0.00 | 0.00 | 47 | 1009.0 |
| 20260506010601 | 74 | 231 | 0.9 | 3.5 | 0.00 | 0.00 | 0.00 | 47 | 1008.9 |
| 20260506005548 | 75 | 216 | 1.7 | 11.3 | 0.00 | 0.00 | 0.00 | 47 | 1008.9 |
| 20260506005038 | 75 | 84 | 1.7 | 11.3 | 0.00 | 0.00 | 0.00 | 46 | 1008.9 |
| 20260506004800 | 75 | 60 | 1.7 | 11.3 | 0.00 | 0.00 | 0.00 | 45 | 1008.8 |
| 20260506004248 | 75 | 129 | 1.7 | 11.3 | 0.00 | 0.00 | 0.00 | 45 | 1008.8 |
| 20260506003739 | 75 | 101 | 1.7 | 7.0 | 0.00 | 0.00 | 0.00 | 44 | 1008.7 |
| 20260506003013 | 75 | 98 | 0.9 | 7.0 | 0.00 | 0.00 | 0.00 | 43 | 1008.7 |
| 20260506002505 | 75 | 220 | 0.9 | 7.0 | 0.00 | 0.00 | 0.00 | 43 | 1008.6 |
| 20260506001954 | 75 | 38 | 0.9 | 7.0 | 0.00 | 0.00 | 0.00 | 43 | 1008.5 |
| 20260506001449 | 75 | 210 | 0.9 | 6.1 | 0.00 | 0.00 | 0.00 | 43 | 1008.3 |
| 20260506000951 | 76 | 54 | 0.9 | 3.5 | 0.00 | 0.00 | 0.00 | 41 | 1008.3 |
| 20260506000432 | 76 | 69 | 0.9 | 3.5 | 0.00 | 0.00 | 0.00 | 40 | 1008.4 |
| 20260505235927 | 76 | 96 | 0.9 | 5.2 | 0.00 | 0.00 | 0.00 | 41 | 1008.3 |
| 20260505235420 | 77 | 97 | 0.9 | 5.2 | 0.00 | 0.00 | 0.00 | 39 | 1008.3 |
| 20260505235138 | 77 | 225 | 1.7 | 7.0 | 0.00 | 0.00 | 0.00 | 38 | 1008.3 |
| 20260505234404 | 78 | 62 | 1.7 | 7.0 | 0.00 | 0.00 | 0.00 | 38 | 1008.3 |
| 20260505233859 | 78 | 51 | 1.7 | 7.0 | 0.00 | 0.00 | 0.00 | 38 | 1008.3 |
| 20260505233349 | 78 | 178 | 1.7 | 7.0 | 0.00 | 0.00 | 0.00 | 37 | 1008.2 |
| 20260505233328 | 78 | 66 | 1.7 | 6.1 | 0.00 | 0.00 | 0.00 | 37 | 1008.1 |
| 20260505232336 | 78 | 145 | 1.7 | 6.1 | 0.00 | 0.00 | 0.00 | 37 | 1008.1 |
| 20260505231827 | 78 | 342 | 1.7 | 6.1 | 0.00 | 0.00 | 0.00 | 36 | 1008.1 |
| 20260505231320 | 78 | 150 | 1.7 | 6.1 | 0.00 | 0.00 | 0.00 | 37 | 1008.0 |
| 20260505231035 | 78 | 169 | 1.7 | 8.7 | 0.00 | 0.00 | 0.00 | 36 | 1008.0 |
| 20260505230305 | 79 | 237 | 1.7 | 8.7 | 0.00 | 0.00 | 0.00 | 35 | 1008.0 |
| 20260505225759 | 79 | 40 | 2.6 | 9.6 | 0.00 | 0.00 | 0.00 | 35 | 1007.9 |
| 20260505225254 | 79 | 171 | 1.7 | 9.6 | 0.00 | 0.00 | 0.00 | 34 | 1007.6 |
| 20260505224743 | 80 | 37 | 1.7 | 7.8 | 0.00 | 0.00 | 0.00 | 35 | 1007.8 |
| 20260505224236 | 80 | 178 | 1.7 | 9.6 | 0.00 | 0.00 | 0.00 | 34 | 1007.7 |
| 20260505223732 | 80 | 233 | 1.7 | 9.6 | 0.00 | 0.00 | 0.00 | 34 | 1007.7 |
| 20260505223221 | 80 | 192 | 2.6 | 8.7 | 0.00 | 0.00 | 0.00 | 34 | 1007.6 |
| 20260505222714 | 80 | 205 | 2.6 | 8.7 | 0.00 | 0.00 | 0.00 | 34 | 1007.6 |
| 20260505222211 | 80 | 158 | 2.6 | 9.6 | 0.00 | 0.00 | 0.00 | 33 | 1007.6 |
| 20260505221659 | 80 | 39 | 2.6 | 9.6 | 0.00 | 0.00 | 0.00 | 33 | 1007.6 |
| 20260505221153 | 81 | 48 | 2.6 | 9.6 | 0.00 | 0.00 | 0.00 | 33 | 1007.5 |
| 20260505220652 | 80 | 282 | 2.6 | 9.6 | 0.00 | 0.00 | 0.00 | 33 | 1007.4 |
| 20260505220149 | 81 | 211 | 2.6 | 7.0 | 0.00 | 0.00 | 0.00 | 34 | 1007.5 |
| 20260505215649 | 81 | 35 | 2.6 | 7.0 | 0.00 | 0.00 | 0.00 | 34 | 1007.5 |
| 20260505215149 | 81 | 88 | 2.6 | 8.7 | 0.00 | 0.00 | 0.00 | 35 | 1007.3 |
| 20260505214646 | 80 | 147 | 2.6 | 8.7 | 0.00 | 0.00 | 0.00 | 34 | 1007.2 |
| 20260505214411 | 80 | 61 | 2.6 | 8.7 | 0.00 | 0.00 | 0.00 | 34 | 1007.2 |
| 20260505213909 | 81 | 53 | 2.6 | 10.4 | 0.00 | 0.00 | 0.00 | 34 | 1007.3 |
| 20260505213147 | 81 | 105 | 2.6 | 10.4 | 0.00 | 0.00 | 0.00 | 35 | 1007.3 |
| 20260505212646 | 81 | 161 | 2.6 | 11.3 | 0.00 | 0.00 | 0.00 | 35 | 1007.0 |
| 20260505212146 | 81 | 42 | 3.5 | 12.2 | 0.00 | 0.00 | 0.00 | 35 | 1006.8 |
| 20260505211646 | 81 | 326 | 3.5 | 12.2 | 0.00 | 0.00 | 0.00 | 35 | 1006.7 |
| 20260505211405 | 81 | 237 | 3.5 | 10.4 | 0.00 | 0.00 | 0.00 | 33 | 1007.0 |
| 20260505210649 | 82 | 182 | 3.5 | 9.6 | 0.00 | 0.00 | 0.00 | 32 | 1007.1 |
| 20260505210201 | 82 | 34 | 3.5 | 13.9 | 0.00 | 0.00 | 0.00 | 33 | 1007.0 |
| 20260505205643 | 82 | 57 | 4.3 | 13.9 | 0.00 | 0.00 | 0.00 | 33 | 1006.9 |
| 20260505205146 | 82 | 217 | 3.5 | 13.0 | 0.00 | 0.00 | 0.00 | 33 | 1006.8 |
| 20260505204644 | 82 | 62 | 2.6 | 13.0 | 0.00 | 0.00 | 0.00 | 33 | 1007.0 |
| 20260505204145 | 82 | 179 | 3.5 | 13.0 | 0.00 | 0.00 | 0.00 | 34 | 1007.1 |
| 20260505203646 | 81 | 57 | 2.6 | 13.0 | 0.00 | 0.00 | 0.00 | 34 | 1007.1 |
| 20260505203143 | 81 | 58 | 2.6 | 11.3 | 0.00 | 0.00 | 0.00 | 36 | 1007.1 |
| 20260505202641 | 81 | 66 | 3.5 | 15.6 | 0.00 | 0.00 | 0.00 | 34 | 1007.0 |
| 20260505202405 | 82 | 24 | 3.5 | 15.6 | 0.00 | 0.00 | 0.00 | 36 | 1007.1 |
| 20260505201640 | 82 | 217 | 3.5 | 15.6 | 0.00 | 0.00 | 0.00 | 35 | 1007.1 |
| 20260505201140 | 82 | 80 | 3.5 | 15.6 | 0.00 | 0.00 | 0.00 | 33 | 1007.3 |
| 20260505200640 | 82 | 247 | 3.5 | 11.3 | 0.00 | 0.00 | 0.00 | 34 | 1007.2 |
| 20260505200143 | 82 | 242 | 3.5 | 11.3 | 0.00 | 0.00 | 0.00 | 36 | 1007.1 |
| 20260505195640 | 82 | 346 | 2.6 | 11.3 | 0.00 | 0.00 | 0.00 | 36 | 1007.2 |
| 20260505195403 | 83 | 52 | 2.6 | 15.6 | 0.00 | 0.00 | 0.00 | 34 | 1007.3 |
| 20260505194641 | 83 | 182 | 1.7 | 15.6 | 0.00 | 0.00 | 0.00 | 35 | 1007.2 |
| 20260505194627 | 83 | 182 | 2.6 | 15.6 | 0.00 | 0.00 | 0.00 | 36 | 1007.3 |
| 20260505193640 | 83 | 0 | 2.6 | 15.6 | 0.00 | 0.00 | 0.00 | 34 | 1007.3 |
| 20260505193400 | 83 | 51 | 2.6 | 16.5 | 0.00 | 0.00 | 0.00 | 34 | 1007.4 |
| 20260505192640 | 83 | 82 | 3.5 | 16.5 | 0.00 | 0.00 | 0.00 | 36 | 1007.6 |
| 20260505192141 | 83 | 242 | 3.5 | 16.5 | 0.00 | 0.00 | 0.00 | 35 | 1007.7 |
| 20260505191640 | 83 | 286 | 3.5 | 16.5 | 0.00 | 0.00 | 0.00 | 36 | 1007.7 |
| 20260505191406 | 83 | 56 | 3.5 | 9.6 | 0.00 | 0.00 | 0.00 | 35 | 1007.7 |
| 20260505190640 | 83 | 192 | 4.3 | 9.6 | 0.00 | 0.00 | 0.00 | 34 | 1007.8 |
| 20260505190141 | 83 | 275 | 4.3 | 16.5 | 0.00 | 0.00 | 0.00 | 37 | 1007.8 |
| 20260505185640 | 83 | 344 | 3.5 | 16.5 | 0.00 | 0.00 | 0.00 | 35 | 1007.9 |
| 20260505185141 | 83 | 46 | 3.5 | 16.5 | 0.00 | 0.00 | 0.00 | 37 | 1007.9 |
| 20260505184910 | 84 | 144 | 2.6 | 16.5 | 0.00 | 0.00 | 0.00 | 36 | 1008.1 |
| 20260505184140 | 83 | 88 | 2.6 | 10.4 | 0.00 | 0.00 | 0.00 | 36 | 1008.1 |
| 20260505183640 | 83 | 90 | 2.6 | 8.7 | 0.00 | 0.00 | 0.00 | 38 | 1008.2 |
| 20260505183141 | 83 | 114 | 1.7 | 7.8 | 0.00 | 0.00 | 0.00 | 38 | 1008.4 |
| 20260505182641 | 83 | 188 | 2.6 | 6.1 | 0.00 | 0.00 | 0.00 | 40 | 1008.3 |
| 20260505182141 | 83 | 94 | 2.6 | 7.8 | 0.00 | 0.00 | 0.00 | 38 | 1008.4 |
| 20260505181902 | 83 | 5 | 2.6 | 8.7 | 0.00 | 0.00 | 0.00 | 41 | 1008.3 |
| 20260505181140 | 83 | 28 | 2.6 | 8.7 | 0.00 | 0.00 | 0.00 | 36 | 1008.4 |
| 20260505180641 | 83 | 194 | 2.6 | 7.8 | 0.00 | 0.00 | 0.00 | 41 | 1008.5 |
| 20260505180140 | 82 | 250 | 2.6 | 9.6 | 0.00 | 0.00 | 0.00 | 42 | 1008.6 |
| 20260505175638 | 83 | 211 | 2.6 | 9.6 | 0.00 | 0.00 | 0.00 | 43 | 1008.6 |
| 20260505175138 | 83 | 90 | 2.6 | 7.0 | 0.00 | 0.00 | 0.00 | 40 | 1008.7 |
| 20260505174906 | 83 | 32 | 2.6 | 7.0 | 0.00 | 0.00 | 0.00 | 43 | 1008.6 |
| 20260505174138 | 83 | 213 | 1.7 | 7.0 | 0.00 | 0.00 | 0.00 | 41 | 1008.7 |
| 20260505173639 | 83 | 215 | 1.7 | 7.0 | 0.00 | 0.00 | 0.00 | 43 | 1008.8 |
| 20260505173139 | 83 | 251 | 1.7 | 7.0 | 0.00 | 0.00 | 0.00 | 44 | 1008.9 |
| 20260505172858 | 83 | 220 | 1.7 | 6.1 | 0.00 | 0.00 | 0.00 | 43 | 1008.9 |
| 20260505172137 | 83 | 128 | 1.7 | 6.1 | 0.00 | 0.00 | 0.00 | 41 | 1009.0 |
| 20260505171906 | 83 | 60 | 1.7 | 6.1 | 0.00 | 0.00 | 0.00 | 44 | 1009.0 |
| 20260505171134 | 83 | 198 | 1.7 | 12.2 | 0.00 | 0.00 | 0.00 | 45 | 1009.0 |
| 20260505170628 | 82 | 5 | 1.7 | 12.2 | 0.00 | 0.00 | 0.00 | 45 | 1009.0 |
| 20260505170119 | 82 | 38 | 1.7 | 12.2 | 0.00 | 0.00 | 0.00 | 46 | 1009.0 |
| 20260505165612 | 82 | 229 | 1.7 | 12.2 | 0.00 | 0.00 | 0.00 | 44 | 1009.1 |
| 20260505165113 | 82 | 202 | 1.7 | 8.7 | 0.00 | 0.00 | 0.00 | 45 | 1009.3 |
| 20260505164834 | 81 | 38 | 1.7 | 7.8 | 0.00 | 0.00 | 0.00 | 45 | 1009.4 |
| 20260505164112 | 81 | 271 | 1.7 | 6.1 | 0.00 | 0.00 | 0.00 | 45 | 1009.5 |
| 20260505163608 | 81 | 169 | 2.6 | 9.6 | 0.00 | 0.00 | 0.00 | 45 | 1009.5 |
| 20260505163342 | 81 | 58 | 1.7 | 9.6 | 0.00 | 0.00 | 0.00 | 51 | 1009.6 |
| 20260505162608 | 80 | 56 | 1.7 | 9.6 | 0.00 | 0.00 | 0.00 | 46 | 1009.6 |
| 20260505162107 | 80 | 237 | 1.7 | 9.6 | 0.00 | 0.00 | 0.00 | 47 | 1009.7 |
| 20260505161604 | 80 | 53 | 2.6 | 7.8 | 0.00 | 0.00 | 0.00 | 47 | 1009.7 |
| 20260505161118 | 80 | 132 | 1.7 | 7.8 | 0.00 | 0.00 | 0.00 | 46 | 1009.7 |
| 20260505160605 | 80 | 209 | 1.7 | 7.0 | 0.00 | 0.00 | 0.00 | 47 | 1009.7 |
| 20260505160338 | 79 | 339 | 1.7 | 7.0 | 0.00 | 0.00 | 0.00 | 47 | 1009.8 |
| 20260505153046 | 77 | 142 | 1.7 | 7.0 | 0.00 | 0.00 | 0.00 | 50 | 1010.2 |
| 20260505152538 | 77 | 71 | 1.7 | 7.0 | 0.00 | 0.00 | 0.00 | 53 | 1010.2 |
| 20260505152027 | 77 | 108 | 1.7 | 7.0 | 0.00 | 0.00 | 0.00 | 51 | 1010.2 |
| 20260505151533 | 76 | 298 | 1.7 | 7.0 | 0.00 | 0.00 | 0.00 | 54 | 1010.3 |
| 20260505151014 | 76 | 66 | 1.7 | 5.2 | 0.00 | 0.00 | 0.00 | 54 | 1010.2 |
| 20260505150504 | 76 | 210 | 1.7 | 7.8 | 0.00 | 0.00 | 0.00 | 52 | 1010.2 |
| 20260505150439 | 75 | 96 | 1.7 | 7.8 | 0.00 | 0.00 | 0.00 | 53 | 1010.2 |